User: anonymous   Login
Location: Trois-Rivi�res
(46.3500°N, 72.5500°W)
Time: 12:02:39
(UTC-05:00)
Language:

Cosmos 1544 - Orbit

View from above orbital plane
View from above orbital plane
View from above satellite
View from above satellite

Ground track
Ground track

The orbit data is extracted from the following two-line orbital elements,

1 14819U 84027A   17018.86883933  .00001400  00000-0  54054-4 0  9996
2 14819  82.4843 177.7783 0014051 200.5430 159.5245 15.25342991793044
Epoch (UTC): 18 January 2017 20:51:07
Eccentricity: 0.0014051
inclination: 82.4843°
perigee height: 480 km
apogee height: 499 km
right ascension of ascending node: 177.7783°
argument of perigee: 200.5430°
revolutions per day: 15.25342991
mean anomaly at epoch: 159.5245°
orbit number at epoch: 79304

The dashed part of the orbit path shows where the satellite is in the earth's shadow,  

DLR